This is the latest recevied weather packets stored in our database for station/object KD7AWQ. If no packets are shown the sender has not sent any weather packets the latest 10 day(s).
| Time | Temp. | Humidity | Pressure | Rain* | Wind** | Luminosity | Snow |
|---|---|---|---|---|---|---|---|
| 1777214245 | 17.22° C | 22% | 1178.6 hPa | 0 mm | - | 299 W/m² | - |
| 1777213944 | 16.67° C | 22% | 1178.7 hPa | 0 mm | - | 277 W/m² | - |
| 1777213639 | 16.67° C | 23% | 1178.6 hPa | 0 mm | - | 80 W/m² | - |
| 1777213335 | 16.67° C | 23% | 1178.4 hPa | 0 mm | - | 67 W/m² | - |
| 1777213032 | 16.67° C | 23% | 1178.6 hPa | 0 mm | - | 211 W/m² | - |
| 1777212730 | 16.67° C | 22% | 1178.6 hPa | 0 mm | - | 190 W/m² | - |
| 1777212429 | 16.67° C | 22% | 1178.7 hPa | 0 mm | - | 176 W/m² | - |
| 1777212125 | 16.67° C | 23% | 1178.8 hPa | 0 mm | - | 154 W/m² | - |
| 1777211821 | 16.67° C | 23% | 1178.7 hPa | 0 mm | - | 138 W/m² | - |
| 1777211519 | 16.67° C | 23% | 1178.6 hPa | 0 mm | - | 122 W/m² | - |
| 1777211215 | 16.67° C | 23% | 1178.6 hPa | 0 mm | - | 107 W/m² | - |
| 1777210912 | 16.67° C | 23% | 1178.6 hPa | 0 mm | - | 93 W/m² | - |
| 1777210610 | 16.67° C | 24% | 1178.3 hPa | 0 mm | - | 81 W/m² | - |
| 1777210308 | 16.11° C | 24% | 1178.1 hPa | 0 mm | - | 70 W/m² | - |
| 1777210005 | 15.56° C | 25% | 1178 hPa | 0 mm | - | 60 W/m² | - |
| 1777209705 | 16.11° C | 25% | 1178.5 hPa | 0 mm | - | 43 W/m² | - |
| 1777209401 | 16.11° C | 25% | 1178.4 hPa | 0 mm | - | 36 W/m² | - |
| 1777209097 | 16.67° C | 24% | 1178.1 hPa | 0 mm | - | 31 W/m² | - |
| 1777208793 | 16.67° C | 24% | 1178 hPa | 0 mm | - | 27 W/m² | - |
| 1777208490 | 16.67° C | 24% | 1177.8 hPa | 0 mm | - | 27 W/m² | - |
| 1777208186 | 16.67° C | 24% | 1178.1 hPa | 0 mm | - | 22 W/m² | - |
| 1777207882 | 16.67° C | 24% | 1177.8 hPa | 0 mm | - | 14 W/m² | - |
| 1777207577 | 16.67° C | 24% | 1177.8 hPa | 0 mm | - | 9 W/m² | - |
| 1777207272 | 16.67° C | 24% | 1177.9 hPa | 0 mm | - | 5 W/m² | - |
| 1777206967 | 16.67° C | 24% | 1177.7 hPa | 0 mm | - | 3 W/m² | - |
* Rain latest hour (hover to see other rain measurements)
** Current wind speed in m/s (hover to see current wind gust speed)